{"data":{"norad_id":81359,"epoch":"2026-05-24T01:39:40.563072Z","epoch_age_seconds":162391,"freshness":"FRESH","line1":"1 81359U          26144.06921948  .00000433  00000+0  47082-3 0  9995","line2":"2 81359  66.7991  23.3677 0117145 217.9874 141.2895 13.79096037627865","mean_motion":13.79096037,"eccentricity":0.0117145,"inclination_deg":66.7991,"raan_deg":23.3677,"arg_perigee_deg":217.9874,"mean_anomaly_deg":141.2895,"bstar":0.00047082,"rev_number":62786,"period_min":104.41622348016,"perigee_km":881.04900265046,"apogee_km":1053.1404366097,"semimajor_km":7345.2317196301,"source":"CELESTRAK","updated_at":"2026-05-25T13:38:09.449975Z"}}